TimeEST,TemperatureF,Dew PointF,Humidity,Sea Level PressureIn,VisibilityMPH,Wind Direction,Wind SpeedMPH,Gust SpeedMPH,PrecipitationIn,Events,Conditions,WindDirDegrees,DateUTC
12:51 AM,30.2,23.0,75,30.08,10.0,East,8.1,-,N/A,,Overcast,90,2012-12-20 05:51:00
12:55 AM,30.0,23.0,75,30.10,10.0,East,5.8,-,N/A,,Overcast,90,2012-12-20 05:55:00
1:55 AM,30.0,23.0,75,30.09,10.0,East,5.8,-,N/A,,Overcast,100,2012-12-20 06:55:00
2:55 AM,30.0,24.1,79,30.07,10.0,ESE,5.8,-,N/A,,Overcast,110,2012-12-20 07:55:00
3:55 AM,30.0,23.0,75,30.05,10.0,ESE,6.9,-,N/A,,Overcast,110,2012-12-20 08:55:00
4:55 AM,30.0,23.0,75,30.05,10.0,East,9.2,-,N/A,,Overcast,100,2012-12-20 09:55:00
5:55 AM,28.9,23.0,78,30.01,10.0,East,10.4,17.3,N/A,,Overcast,90,2012-12-20 10:55:00
6:55 AM,30.0,21.9,72,29.99,10.0,East,9.2,18.4,N/A,,Overcast,100,2012-12-20 11:55:00
7:22 AM,30.0,23.0,75,29.95,10.0,East,9.2,-,N/A,,Overcast,80,2012-12-20 12:22:00
7:55 AM,30.0,21.9,72,29.97,10.0,East,11.5,-,N/A,,Overcast,90,2012-12-20 12:55:00
8:21 AM,30.0,21.9,72,29.93,10.0,East,9.2,17.3,N/A,,Overcast,100,2012-12-20 13:21:00
8:48 AM,30.0,21.9,72,29.92,10.0,East,11.5,17.3,N/A,,Overcast,90,2012-12-20 13:48:00
8:55 AM,30.0,21.9,72,29.93,10.0,East,11.5,19.6,N/A,,Overcast,80,2012-12-20 13:55:00
9:16 AM,30.0,21.9,72,29.91,6.0,East,9.2,-,0.00,Snow,Light Snow,90,2012-12-20 14:16:00
9:31 AM,30.0,23.0,75,29.90,1.8,East,12.7,-,0.00,Snow,Light Snow,90,2012-12-20 14:31:00
9:41 AM,28.9,24.1,82,29.89,0.8,East,10.4,19.6,0.00,Snow,Light Snow,80,2012-12-20 14:41:00
9:55 AM,28.9,25.0,85,29.90,0.5,East,11.5,-,0.01,Fog-Snow,Snow,80,2012-12-20 14:55:00
9:59 AM,28.9,25.0,85,29.88,0.5,East,9.2,-,0.01,Fog-Snow,Snow,80,2012-12-20 14:59:00
10:23 AM,28.9,26.1,89,29.86,1.0,East,9.2,-,0.02,Snow,Light Snow,90,2012-12-20 15:23:00
10:33 AM,30.0,26.1,85,29.86,0.8,East,13.8,19.6,0.02,Snow,Light Snow,90,2012-12-20 15:33:00
10:55 AM,30.0,26.1,85,29.87,1.0,East,11.5,18.4,0.04,Snow,Light Snow,90,2012-12-20 15:55:00
11:09 AM,30.0,26.1,85,29.83,0.8,East,10.4,-,0.00,Snow,Light Snow,80,2012-12-20 16:09:00
11:20 AM,30.0,26.1,85,29.82,0.8,East,12.7,-,0.01,Snow,Light Snow,80,2012-12-20 16:20:00
11:44 AM,30.0,27.0,88,29.79,0.5,ENE,10.4,18.4,0.03,Fog-Snow,Snow,70,2012-12-20 16:44:00
11:55 AM,30.0,27.0,88,29.81,0.5,ENE,10.4,20.7,0.04,Fog-Snow,Snow,70,2012-12-20 16:55:00
12:55 PM,28.9,26.1,89,29.75,0.2,ENE,11.5,19.6,0.10,Fog-Snow,Snow,70,2012-12-20 17:55:00
1:55 PM,30.0,26.1,85,29.67,0.2,ENE,11.5,25.3,0.08,Fog-Snow,Snow,70,2012-12-20 18:55:00
2:55 PM,30.0,27.0,88,29.62,0.2,ENE,13.8,19.6,0.07,Fog-Snow,Snow,60,2012-12-20 19:55:00
3:44 PM,28.9,25.0,85,29.56,0.5,ENE,13.8,25.3,0.05,Fog-Snow,Snow,70,2012-12-20 20:44:00
3:55 PM,28.0,25.0,88,29.58,0.5,ENE,13.8,24.2,0.07,Fog-Snow,Snow,60,2012-12-20 20:55:00
4:08 PM,28.0,25.0,88,29.54,0.5,ENE,12.7,20.7,0.01,Fog-Snow,Snow,60,2012-12-20 21:08:00
4:55 PM,28.0,25.0,88,29.54,0.2,ENE,12.7,19.6,0.08,Fog-Snow,Snow,60,2012-12-20 21:55:00
5:55 PM,28.0,25.0,88,29.54,0.5,ENE,11.5,18.4,0.10,Fog-Snow,Snow,60,2012-12-20 22:55:00
6:55 PM,27.0,24.1,89,29.51,0.5,NE,9.2,18.4,0.09,Fog-Snow,Snow,50,2012-12-20 23:55:00
7:34 PM,27.0,24.1,89,29.48,0.2,NE,13.8,24.2,0.06,Fog-Snow,Heavy Snow,50,2012-12-21 00:34:00
7:55 PM,27.0,24.1,89,29.49,0.2,NE,8.1,20.7,0.17,Fog-Snow,Heavy Snow,50,2012-12-21 00:55:00
8:41 PM,27.0,24.1,89,29.45,0.5,NE,10.4,21.9,0.15,Fog-Snow,Snow,50,2012-12-21 01:41:00
8:55 PM,27.0,23.0,85,29.47,0.8,ENE,13.8,20.7,0.17,Snow,Light Snow,60,2012-12-21 01:55:00
9:05 PM,27.0,23.0,85,29.44,1.0,NE,13.8,21.9,0.01,Snow,Light Snow,50,2012-12-21 02:05:00
9:11 PM,27.0,23.0,85,29.44,1.5,NE,12.7,21.9,0.02,Snow,Light Snow,50,2012-12-21 02:11:00
9:35 PM,26.1,23.0,88,29.43,0.8,NE,10.4,20.7,0.03,Snow,Light Snow,50,2012-12-21 02:35:00
9:55 PM,26.1,23.0,88,29.45,0.8,NE,13.8,23.0,0.05,Snow,Light Snow,40,2012-12-21 02:55:00
10:55 PM,25.0,21.9,88,29.42,0.8,NE,12.7,26.5,0.06,Snow,Light Snow,50,2012-12-21 03:55:00
11:03 PM,25.0,21.9,88,29.39,1.0,NE,10.4,19.6,0.01,Snow,Light Snow,40,2012-12-21 04:03:00
11:22 PM,25.0,21.0,85,29.39,2.0,NE,9.2,24.2,0.01,Snow,Light Snow,40,2012-12-21 04:22:00
11:34 PM,26.1,21.0,81,29.38,3.0,NE,12.7,20.7,0.01,Snow,Light Snow,40,2012-12-21 04:34:00
11:55 PM,26.1,19.0,75,29.41,7.0,NNE,12.7,20.7,0.01,Snow,Light Snow,30,2012-12-21 04:55:00